Regional Weather Roundup
Issued by NWS

Home | Current Version | Previous Version | Text Only | Print | Product List | Glossary On
Versions: 1 2 3 4 5 6 7 8 9 10 11 12 13 14 15 16 17 18 19 20 21 22 23 24 25 26 27
000
ASUS46 KPQR 201510
RWROR

OREGON REGIONAL WEATHER ROUNDUP
NATIONAL WEATHER SERVICE PORTLAND OR
700 AM PST MON FEB 20 2017

NOTE: "FAIR" INDICATES FEW OR NO CLOUDS BELOW 12,000 FEET WITH
NO SIGNIFICANT WEATHER AND/OR OBSTRUCTIONS TO VISIBILITY.

ORZ001>013-201600-
NORTHWEST OREGON


CITY           SKY/WX    TMP DP  RH WIND       PRES   REMARKS
ASTORIA        LGT RAIN  43  40  89 E5        29.42F
NEWPORT        LGT RAIN  41  41 100 E12       29.38F
PORTLAND       RAIN      41  40  96 CALM      29.43F FOG
VANCOUVER WA   LGT RAIN  42  42 100 CALM      29.43F FOG
SCAPPOOSE      LGT RAIN  42  42 100 NW3       29.42F
HILLSBORO      LGT RAIN  42  40  92 N3        29.41F FOG
AURORA         RAIN      43  41  93 NW3       29.41F FOG
MCMINNVILLE    RAIN      44  41  89 N7        29.42F FOG
SALEM          LGT RAIN  43  41  93 N6        29.39F
CORVALLIS        N/A     45  39  81 CALM      29.38F
EUGENE         CLOUDY    43  42  97 NE7       29.38F
$$

ORZ021-028-201600-
SOUTHWEST OREGON


CITY           SKY/WX    TMP DP  RH WIND       PRES   REMARKS
NORTH BEND     CLOUDY    54  48  82 S18G26    29.33S
BROOKINGS      LGT RAIN  49  47  93 SW9G23    29.65R
ROSEBURG       PTCLDY    49  43  80 S7        29.38F
SEXTON SUMMIT  LGT SNOW  37  37 100 S28G63    29.43R FOG     WCI  25
MEDFORD        LGT RAIN  50  42  74 S14G23    29.53R
$$

ORZ014>016-041-201600-
COLUMBIA GORGE


CITY           SKY/WX    TMP DP  RH WIND       PRES   REMARKS
TROUTDALE      RAIN      42  39  89 E14G21    29.42F
THE DALLES     FOG       37  37 100 CALM      29.52F VSB 1/2
$$

ORZ029>031-041-044-049-050-061>064-502-503-505>511-201600-
EASTERN OREGON


CITY           SKY/WX    TMP DP  RH WIND       PRES   REMARKS
REDMOND        LGT RAIN  37  33  85 S5        29.46F WCI  33
BEND           MOCLDY    36  34  93 S7        29.46F WCI  30
PRINEVILLE     MOCLDY    43  37  81 S9        29.47F
KLAMATH FALLS  MOCLDY    43  34  70 S17       29.56R
LAKEVIEW       CLOUDY    39  36  87 S20       29.60S WCI  30
HERMISTON      CLOUDY    40  40 100 E5        29.50F
PENDLETON      LGT RAIN  43  40  89 NE10      29.49F
JOHN DAY       MOCLDY    45  34  65 S29G39    29.51F
MEACHAM        CLOUDY    37  31  78 MISG      29.50F
LA GRANDE      PTCLDY    43  34  70 S17G24    29.54F
BAKER CITY     LGT RAIN  38  34  85 E15       29.61F WCI  29
BURNS          LGT RAIN  34  30  85 NE8       29.60F WCI  27
ROME             N/A     48  34  58 S22G32    29.67R
ONTARIO        LGT RAIN  36  34  92 N3        29.70S
$$




USA.gov is the U.S. government's official web portal to all federal, state and local government web resources and services.